Weather History for Kodiak, AK

Change the Weather History Date:

Sunday, March 3, 2013

  Actual Average Record
Temperature  
Mean Temperature 37 °F 32 °F  
Max Temperature 39 °F 37 °F 50 °F (1995)
Min Temperature 35 °F 27 °F 1 °F (1994)
Degree Days  
Heating Degree Days 28 33  
Month to date heating degree days 98 99  
Since 1 July heating degree days 6019 5972  
Cooling Degree Days 0    
Month to date cooling degree days 0  
Year to date cooling degree days 0  
Moisture  
Dew Point 36 °F    
Average Humidity 0    
Maximum Humidity 0    
Minimum Humidity 0    
Precipitation  
Precipitation 1.16 in 0.18 in 1.46 in (1966)
Month to date precipitation 1.20 0.55  
Year to date precipitation 17.38 14.98  
Snow  
Snow T in 0.40 in 14.60 in (1966)
Month to date snowfall T 1.2  
Since 1 July snowfall 48.4 50.6  
Snow Depth T in    
Sea Level Pressure  
Sea Level Pressure 29.94 in    
Wind  
Wind Speed 24 mph (ENE)    
Max Wind Speed 37 mph    
Max Gust Speed 46 mph    
Visibility 4 miles    
Events Rain , Snow    
T = Trace of Precipitation, MM = Missing Value Source: NWS Daily Summary

Daily Weather History Graph

Daily Weather History Graph

Search for Another Location

Airport:

Trip Planner

Search our weather history database for the weather conditions in past years. The results will help you decide how hot, cold, wet, or windy it might be!

Date:

Astronomy

Mar. 03, 2013 Rise Set
Actual Time 7:57 AM AKST 6:47 PM AKST
Civil Twilight 7:18 AM AKST 7:26 PM AKST
Nautical Twilight 6:33 AM AKST 8:11 PM AKST
Astronomical Twilight 5:47 AM AKST 8:57 PM AKST
Moon 1:59 AM AKST (3/3) 9:55 AM AKST (3/3)
Length of Visible Light 12h 07m
Length of Day
10h 49m
Waning Gibbous, 62% of the Moon is Illuminated
Mar 3
Waning Gibbous
Mar 4
Last Quarter
Mar 11
New
Mar 19
First Quarter
Mar 27
Full

Hourly Weather History & Observations

Time (AKST) Temp. Windchill Dew Point Humidity Pressure Visibility Wind Dir Wind Speed Gust Speed Precip Events Conditions
12:04 AM 35.6 °F 22.5 °F 33.8 °F 93% 29.82 in 7.0 mi East 29.9 mph 35.7 mph 0.01 in Rain Light Rain
12:53 AM 36.0 °F 23.5 °F 33.1 °F 89% 29.82 in 8.0 mi East 27.6 mph 39.1 mph 0.03 in Rain Light Rain
1:11 AM 35.6 °F 23.4 °F 33.8 °F 93% 29.81 in 7.0 mi East 25.3 mph 36.8 mph 0.01 in Rain Light Rain
1:27 AM 35.6 °F 22.7 °F 33.8 °F 93% 29.81 in 6.0 mi East 28.8 mph 39.1 mph 0.02 in Rain Light Rain
1:53 AM 36.0 °F 23.2 °F 34.0 °F 93% 29.82 in 6.0 mi East 28.8 mph 40.3 mph 0.02 in Rain Light Rain
2:29 AM 35.6 °F 23.4 °F 33.8 °F 93% 29.82 in 5.0 mi East 25.3 mph 36.8 mph 0.03 in Rain , Snow Light Rain
3:53 AM 35.1 °F 22.5 °F 34.0 °F 96% 29.82 in 4.0 mi ENE 26.5 mph 34.5 mph 0.06 in Rain , Snow Light Rain
4:53 AM 36.0 °F 23.5 °F 34.0 °F 93% 29.82 in 4.0 mi ENE 27.6 mph 38.0 mph 0.09 in Rain , Snow Light Rain
5:53 AM 36.0 °F 23.9 °F 34.0 °F 93% 29.82 in 4.0 mi ENE 25.3 mph 39.1 mph 0.07 in Rain Rain
6:53 AM 36.0 °F 22.8 °F 34.0 °F 93% 29.83 in 4.0 mi ENE 31.1 mph 36.8 mph 0.08 in Rain Rain
7:53 AM 37.0 °F 24.1 °F 35.1 °F 93% 29.83 in 4.0 mi ENE 32.2 mph 39.1 mph 0.09 in Rain Rain
8:53 AM 37.0 °F 25.1 °F 35.1 °F 93% 29.84 in 4.0 mi ENE 26.5 mph 40.3 mph 0.07 in Rain Rain
9:53 AM 37.0 °F 23.9 °F 35.1 °F 93% 29.86 in 3.0 mi ENE 33.4 mph 39.1 mph 0.08 in Rain Rain
10:53 AM 37.9 °F 25.7 °F 36.0 °F 93% 29.87 in 3.0 mi ENE 29.9 mph 46.0 mph 0.10 in Rain Rain
11:53 AM 37.9 °F 26.6 °F 36.0 °F 93% 29.89 in 3.0 mi ENE 25.3 mph 39.1 mph 0.07 in Rain Light Rain
12:53 PM 39.0 °F 27.4 °F 37.0 °F 93% 29.91 in 3.0 mi ENE 28.8 mph 39.1 mph 0.03 in Rain Light Rain
1:53 PM 39.0 °F 28.5 °F 37.0 °F 93% 29.93 in 3.0 mi ENE 23.0 mph 35.7 mph 0.01 in Rain Light Rain
2:53 PM 39.0 °F 28.3 °F 37.0 °F 93% 29.96 in 3.0 mi East 24.2 mph - 0.05 in Rain Light Rain
3:00 PM 39.2 °F 29.3 °F 37.4 °F 93% 29.96 in 6.0 mi East 20.7 mph 29.9 mph 0.01 in Rain Light Rain
3:53 PM 37.9 °F 27.6 °F 36.0 °F 93% 29.99 in 7.0 mi East 20.7 mph - 0.04 in Rain Rain
4:53 PM 37.9 °F 30.0 °F 37.0 °F 97% 30.01 in 7.0 mi East 12.7 mph - 0.05 in Rain Light Rain
5:53 PM 37.9 °F 30.0 °F 36.0 °F 93% 30.04 in 6.0 mi East 12.7 mph - 0.05 in Rain Light Rain
6:37 PM 39.2 °F 30.2 °F 37.4 °F 93% 30.05 in 2.5 mi East 17.3 mph - 0.05 in Rain Light Rain
6:53 PM 39.0 °F 29.6 °F 37.9 °F 96% 30.06 in 2.5 mi ENE 18.4 mph 27.6 mph 0.06 in Rain Light Rain
7:40 PM 39.2 °F 29.3 °F 37.4 °F 93% 30.07 in 2.0 mi ENE 20.7 mph 26.5 mph 0.00 in Rain Light Rain
7:53 PM 39.0 °F 29.6 °F 37.9 °F 96% 30.08 in 2.0 mi ENE 18.4 mph 26.5 mph 0.01 in Rain Light Rain
8:53 PM 39.0 °F 29.9 °F 37.9 °F 96% 30.11 in 2.0 mi ENE 17.3 mph - 0.02 in Rain Light Rain
9:53 PM 39.0 °F 31.0 °F 37.9 °F 96% 30.13 in 2.0 mi ENE 13.8 mph - 0.01 in Rain Light Rain
10:53 PM 39.0 °F 30.3 °F 37.9 °F 96% 30.15 in 4.0 mi East 16.1 mph - 0.01 in   Overcast
11:53 PM 39.0 °F 31.0 °F 37.0 °F 93% 30.18 in 6.0 mi ESE 13.8 mph - 0.01 in Rain Light Rain